Meteo Giornale » Osservazioni meteo Italia » Firenze-Peretola

ore: 22:20 - Osservazioni Meteo Firenze-Peretola
Lat. 43° 48' N Lon. 11° 12' E Alt. 40 metri s.l.m.

poco_nuvoloso Europe/Rome

8 °C

Poco Nuvoloso

Temp. 24 Ore

7 °C

16 °C

Nord

5.5 Km/h

Dew point 7 °C

Umidità 93 %

Visibilità  10 Km

Il sole sorge alle ore 07:08

Il sole tramonta alle ore 17:50

Data e Ora Cielo e Fenomeni T °C DP °C Um. % Pres. hPa Vis. km Vento km/h
Oggi h: 22:20 poco_nuvoloso Poco Nuvoloso 8 7 93 1023 10 N 5.5
Oggi h: 21:50 poco_nuvoloso Poco Nuvoloso 7 7 100 1024 10 N 5.5
Oggi h: 21:20 sereno Sereno 9 8 93 1023 10 N 5.5
Oggi h: 20:50 sereno Sereno 10 8 87 1023 10 N 3.7
Oggi h: 20:20 sereno Sereno 10 9 93 1023 10 N 1.8
Oggi h: 19:50 sereno Sereno 12 9 81 1023 10 N 5.5
Oggi h: 19:20 poco_nuvoloso Poco Nuvoloso 12 10 87 1023 10 N 3.7
Oggi h: 18:50 nuvoloso Nuvoloso 12 10 87 1023 10 N 5.5
Oggi h: 18:20 poco_nuvoloso Poco Nuvoloso 13 10 81 1023 10 N 3.7
Oggi h: 17:50 poco_nuvoloso Poco Nuvoloso 14 10 76 1022 10 N 5.5
Oggi h: 16:50 nuvoloso Nuvoloso 15 10 72 1022 10 N 5.5
Oggi h: 16:20 nuvoloso Nuvoloso 15 10 72 1022 10 NO 7.4
Oggi h: 15:50 nuvoloso Nuvoloso 16 10 67 1023 10 NO 7.4
Oggi h: 14:50 nuvoloso Nuvoloso 15 10 72 1023 10 N 3.7
Oggi h: 14:20 nuvoloso Nuvoloso 15 10 72 1024 10 N 1.8
Oggi h: 13:50 molto_nuvoloso Molto Nuvoloso 15 10 72 1024 10 N 3.7
Oggi h: 13:20 molto_nuvoloso Molto Nuvoloso 14 10 76 1024 10 N 5.5
Oggi h: 12:50 molto_nuvoloso Molto Nuvoloso 14 10 76 1024 10 N 5.5
Oggi h: 12:20 molto_nuvoloso Molto Nuvoloso 13 10 81 1025 10 E/SE 7.4
Oggi h: 11:50 molto_nuvoloso Molto Nuvoloso 13 10 81 1025 10 E 7.4
Oggi h: 11:20 molto_nuvoloso Molto Nuvoloso 12 10 87 1025 10 E 9.3
Oggi h: 10:50 molto_nuvoloso Molto Nuvoloso 12 10 87 1025 10 E 9.3
Oggi h: 10:20 molto_nuvoloso Molto Nuvoloso 11 10 93 1025 10 E 9.3
Oggi h: 09:50 molto_nuvoloso Molto Nuvoloso 11 10 93 1025 10 E 11.1
Oggi h: 09:20 coperto_pioggia Pioggia Debole 11 9 87 1025 8 E/SE 13
Oggi h: 08:50 molto_nuvoloso Molto Nuvoloso 11 10 93 1025 8 E/SE 9.3
Oggi h: 08:20 coperto_pioggia Pioggia Debole 11 10 93 1024 8 E/SE 7.4
Oggi h: 07:50 coperto_pioggia Pioggia Debole 11 10 93 1024 6 N 3.7
Oggi h: 07:20 molto_nuvoloso Molto Nuvoloso 11 10 93 1024 10 N 5.5
Oggi h: 06:50 molto_nuvoloso Molto Nuvoloso 11 10 93 1024 10 E 7.4
Oggi h: 06:20 molto_nuvoloso Molto Nuvoloso 12 10 87 1023 10 N 5.5
Oggi h: 05:50 molto_nuvoloso Molto Nuvoloso 11 10 93 1023 10 E/SE 9.3
Oggi h: 05:20 molto_nuvoloso Molto Nuvoloso 11 10 93 1023 10 E 9.3
Oggi h: 04:50 molto_nuvoloso Molto Nuvoloso 11 10 93 1023 10 E 9.3
Oggi h: 04:20 molto_nuvoloso Molto Nuvoloso 11 10 93 1023 10 E 9.3
Oggi h: 03:50 molto_nuvoloso Molto Nuvoloso 11 10 93 1023 10 E 9.3
Oggi h: 03:20 molto_nuvoloso Molto Nuvoloso 11 10 93 1024 10 E 11.1
Oggi h: 02:50 molto_nuvoloso Molto Nuvoloso 11 10 93 1024 10 E/NE 9.3
Oggi h: 02:20 molto_nuvoloso Molto Nuvoloso 11 9 87 1024 10 N 1.8
Oggi h: 01:50 coperto_pioggia Pioggia Debole 11 9 87 1024 10 N 1.8
Oggi h: 01:20 molto_nuvoloso Molto Nuvoloso 11 9 87 1024 10 N 5.5
Oggi h: 00:50 molto_nuvoloso Molto Nuvoloso 11 8 81 1024 10 N 3.7
Oggi h: 00:20 molto_nuvoloso Molto Nuvoloso 12 8 76 1024 10 N 3.7
Ieri h: 23:50 molto_nuvoloso Molto Nuvoloso 11 8 81 1025 10 N 3.7
Ieri h: 23:20 molto_nuvoloso Molto Nuvoloso 12 8 76 1025 10 N 1.8
Ieri h: 22:50 molto_nuvoloso Molto Nuvoloso 12 8 76 1024 10 S/SE 9.3